[[{"header":{"parameterUnit":"m.s-1","parameterCategory":1,"la1":30.2992,"la2":30.254,"lo1":-89.0895,"lo2":-89.0443,"dy":0.0025,"dx":0.0025,"nx":19,"ny":19,"refTime":"2026-05-12T03:00:00:Z","depth":0,"parameterNumber":2,"parameterNumberName":"U-component_of_WINDS"},"data":[0,0,0,1.2872,1.2877,1.3108,1.3109,1.3388,1.339,0,0,0,0,0,0,0,0,0,0,0,1.279,1.2791,1.2872,1.2877,1.3107,1.3109,1.3387,1.339,0,0,0,0,0,0,0,0,0,0,0,1.2789,1.2791,1.2792,1.2878,1.3107,1.3109,1.3387,1.3219,0,0,0,0,0,0,0,0,0,0,1.2998,1.2907,1.279,1.2792,1.2879,1.3107,1.3109,1.3212,1.323,1.3275,0,1.3307,0,1.3353,1.3407,1.3408,0,0,0,1.2889,1.2892,1.2967,1.2793,1.2881,1.3107,1.3007,1.3222,1.3242,1.3299,1.3312,1.3322,1.3357,1.3409,1.341,1.3623,1.3623,0,0,1.2876,1.2825,1.2952,1.2979,1.2938,1.2999,1.3014,1.3235,1.3247,1.3313,1.3329,1.3362,1.341,1.3412,1.3623,1.3623,0,0,0,1.2832,1.2815,1.2885,1.2967,1.301,1.3006,1.3022,1.3237,1.3264,1.3333,1.3365,1.3412,1.3415,1.3622,1.3623,1.3593,0,0,0,1.2824,1.2789,1.2879,1.285,1.3005,1.3125,1.3019,1.3248,1.3275,1.3364,1.3412,1.3418,1.3622,1.3622,1.3593,1.3588,0,0,0,1.278,1.2784,1.2812,1.2846,1.2943,1.3123,1.3163,1.3255,1.3294,1.3408,1.3418,1.3621,1.3622,1.3593,1.3588,1.3629,0,0,0,1.2718,1.2784,1.2811,1.2899,1.2941,1.3102,1.3162,1.3286,1.338,1.3413,1.3622,1.3623,1.3593,1.3588,1.3629,1.3654,1.3659,0,0,1.2773,1.2789,1.2845,1.2876,1.3018,1.3071,1.3212,1.3348,1.3408,1.3549,1.3555,1.3593,1.3588,1.3629,1.3709,1.3712,0,0,0,1.2845,1.2885,1.2934,1.3019,1.3123,1.3214,1.3333,1.3385,1.3506,1.3468,1.3621,1.362,1.3646,1.3661,1.3664,1.369,1.3627,1.3627,1.3627,1.285,1.2921,1.3019,1.3117,1.32,1.3324,1.3399,1.349,1.3539,1.3574,1.3616,1.3655,1.367,1.3673,1.3699,1.3636,1.3636,1.3635,1.3635,1.2938,1.3005,1.3068,1.3184,1.3261,1.3362,1.3486,1.3517,1.3625,1.3629,1.3656,1.3653,1.3674,1.3702,1.3634,1.3634,1.3634,1.3635,1.3635,1.2948,1.2992,1.3052,1.3184,1.3279,1.3379,1.3479,1.3546,1.3611,1.3637,1.3689,1.369,1.3699,1.3657,1.3658,1.3658,1.3658,1.3658,1.3658,1.2934,1.3002,1.3076,1.3193,1.3257,1.3352,1.3479,1.3546,1.3638,1.3679,1.368,1.3726,1.3663,1.3645,1.366,1.366,1.366,1.366,1.3659,1.2995,1.2992,1.3105,1.317,1.3314,1.3405,1.349,1.3621,1.3687,1.3735,1.3777,1.3719,1.3741,1.3739,1.3725,1.376,1.376,1.376,1.376,1.3003,1.302,1.3152,1.3251,1.3357,1.3445,1.3576,1.3677,1.3781,1.3827,1.3833,1.382,1.3815,1.384,1.3836,1.3824,1.3884,1.3884,1.3884,1.3045,1.3076,1.3171,1.3269,1.3388,1.349,1.3615,1.3731,1.3849,1.3891,1.3865,1.386,1.384,1.383,1.3868,1.386,1.3839,0,0]},{"header":{"parameterUnit":"m.s-1","parameterCategory":1,"la1":30.2992,"la2":30.254,"lo1":-89.0895,"lo2":-89.0443,"dy":0.0025,"dx":0.0025,"nx":19,"ny":19,"refTime":"2026-05-12T03:00:00:Z","depth":0,"parameterNumber":3,"parameterNumberName":"V-component_of_WINDS"},"data":[0,0,0,-1.4145,-1.4146,-1.4242,-1.4242,-1.4338,-1.4338,0,0,0,0,0,0,0,0,0,0,0,-1.4099,-1.4099,-1.4145,-1.4147,-1.4242,-1.4242,-1.4337,-1.4338,0,0,0,0,0,0,0,0,0,0,0,-1.4099,-1.4099,-1.4099,-1.4147,-1.4242,-1.4242,-1.4337,-1.4275,0,0,0,0,0,0,0,0,0,0,-1.4187,-1.4127,-1.4099,-1.4099,-1.4147,-1.4242,-1.4243,-1.4272,-1.4279,-1.4283,0,-1.428,0,-1.4311,-1.4343,-1.4343,0,0,0,-1.4159,-1.4122,-1.4164,-1.4099,-1.4148,-1.4241,-1.4202,-1.4276,-1.4284,-1.4291,-1.4282,-1.4286,-1.4312,-1.4343,-1.4344,-1.4325,-1.4324,0,0,-1.4154,-1.4106,-1.4158,-1.4167,-1.415,-1.4199,-1.4205,-1.4281,-1.4268,-1.4282,-1.4289,-1.4314,-1.4344,-1.4344,-1.4325,-1.4324,0,0,0,-1.413,-1.4102,-1.4143,-1.4163,-1.4182,-1.4202,-1.4209,-1.4265,-1.4282,-1.429,-1.4315,-1.4344,-1.4345,-1.4326,-1.4325,-1.4247,0,0,0,-1.4128,-1.4088,-1.414,-1.4112,-1.418,-1.4224,-1.419,-1.4277,-1.4287,-1.4315,-1.4344,-1.4346,-1.4327,-1.4326,-1.4251,-1.4218,0,0,0,-1.4099,-1.4085,-1.4093,-1.4109,-1.4148,-1.4224,-1.4246,-1.428,-1.4301,-1.4343,-1.4346,-1.4327,-1.4326,-1.4255,-1.4224,-1.4203,0,0,0,-1.4054,-1.4019,-1.4091,-1.4063,-1.4147,-1.4175,-1.4246,-1.4269,-1.4295,-1.4344,-1.4327,-1.4325,-1.4256,-1.4228,-1.4206,-1.4178,-1.4161,0,0,-1.3984,-1.4009,-1.3996,-1.4064,-1.4067,-1.4164,-1.4157,-1.4225,-1.4271,-1.4304,-1.4305,-1.425,-1.4224,-1.4204,-1.4079,-1.4065,0,0,0,-1.3958,-1.3949,-1.396,-1.3984,-1.4037,-1.4081,-1.4155,-1.4182,-1.4213,-1.4278,-1.4237,-1.4223,-1.4213,-1.4202,-1.419,-1.4186,-1.4317,-1.4317,-1.4318,-1.379,-1.3855,-1.384,-1.3917,-1.3939,-1.402,-1.4045,-1.4095,-1.4149,-1.4139,-1.415,-1.4066,-1.4051,-1.4043,-1.4038,-1.4138,-1.4138,-1.4138,-1.4138,-1.3696,-1.3694,-1.3774,-1.3788,-1.3858,-1.3871,-1.3949,-1.3989,-1.4012,-1.4062,-1.4056,-1.4107,-1.4026,-1.4025,-1.4132,-1.4133,-1.4134,-1.4134,-1.4135,-1.3594,-1.3606,-1.364,-1.3686,-1.3714,-1.3794,-1.3815,-1.3876,-1.3934,-1.3928,-1.3949,-1.395,-1.3962,-1.3933,-1.3933,-1.3933,-1.3933,-1.3932,-1.3932,-1.3476,-1.3518,-1.3528,-1.3586,-1.3613,-1.3656,-1.374,-1.3768,-1.3816,-1.3859,-1.386,-1.3919,-1.4005,-1.4027,-1.3928,-1.3929,-1.3929,-1.393,-1.393,-1.336,-1.3398,-1.3413,-1.344,-1.3516,-1.3543,-1.3623,-1.3677,-1.3709,-1.3719,-1.3781,-1.3833,-1.3863,-1.3873,-1.3892,-1.3764,-1.3764,-1.3764,-1.3764,-1.3276,-1.3298,-1.3332,-1.3372,-1.3419,-1.3494,-1.3514,-1.3581,-1.3656,-1.3682,-1.3709,-1.3739,-1.3746,-1.3772,-1.3784,-1.3803,-1.3655,-1.3655,-1.3655,-1.321,-1.3241,-1.3244,-1.332,-1.3386,-1.3441,-1.3463,-1.3509,-1.3601,-1.3652,-1.3704,-1.3708,-1.3757,-1.3769,-1.3819,-1.3836,-1.3872,0,0]}]]